Regional Weather Roundup
Issued by NWS San Angelo, TX

Home | Current Version | Previous Version | Text Only | Print | Product List | Glossary On
Versions: 1 2 3 4 5 6 7 8 9 10 11 12 13 14 15 16 17 18 19 20 21 22 23 24 25 26 27 28 29 30 31 32 33 34 35 36 37 38 39 40 41 42 43 44 45 46 47 48 49 50
000
ASUS44 KSJT 250411
RWRSJT
WEST CENTRAL TEXAS REGIONAL WEATHER ROUNDUP
NATIONAL WEATHER SERVICE SAN ANGELO TX
1100 PM CDT SUN JUL 24 2016

NOTE: "FAIR" INDICATES FEW OR NO CLOUDS BELOW 12,000 FEET WITH NO
SIGNIFICANT WEATHER AND/OR OBSTRUCTIONS TO VISIBILITY.

TXZ049-054-064>066-071>073-076>078-098-099-113-114-127-128-139-140-
154-155-168>170-250500
...LOCATIONS ACROSS WEST CENTRAL TEXAS...

CITY           SKY/WX    TMP DP  RH WIND       PRES   REMARKS
SAN ANGELO     CLEAR     85  60  42 E7        29.94R
ABILENE        CLEAR     87  63  44 SE12      29.98R
DYESS AFB      CLEAR     89  64  44 E10       29.96R
JUNCTION       CLEAR     89  63  41 SE8       29.96R
SWEETWATER     CLEAR     84  61  45 E6        30.03R
BROWNWOOD      CLEAR     84  64  51 E7        29.96R
COLEMAN        CLEAR     87  60  40 E6        29.97R
SONORA         CLEAR     90  61  37 SE9       30.01R
OZONA          FAIR      88  55  33 S9        29.99R
BRADY          NOT AVBL
$$

TEXAS PANHANDLE/OKLAHOMA PANHANDLE

CITY           SKY/WX    TMP DP  RH WIND       PRES   REMARKS
AMARILLO       MOCLDY    83  57  41 SE13      30.10R
BORGER         PTCLDY    88  59  37 S13       30.05R
CANADIAN       CLEAR     85  62  45 S12       30.00R
DALHART        CLOUDY    73  64  73 N23       30.17R THUNDER
DUMAS          MOCLDY    76  60  56 NW12G21   30.14R
GUYMON         NOT AVBL
HEREFORD       CLOUDY    85  54  33 NW5       30.13R
PAMPA          PTCLDY    87  58  37 S12       30.08R
PERRYTON       PTCLDY    83  60  46 S8        30.04R
$$

SOUTHERN PANHANDLE/SOUTH PLAINS/ROLLING PLAINS

CITY           SKY/WX    TMP DP  RH WIND       PRES   REMARKS
LUBBOCK        PTCLDY    82  59  45 E7        30.05R
SNYDER           N/A     86  61  43 E7        30.01R
CHILDRESS      CLEAR     88  62  41 SE8       29.98R
SEMINOLE       PTCLDY    83  53  34 E5        30.05R
$$

PERMIAN BASIN

CITY           SKY/WX    TMP DP  RH WIND       PRES   REMARKS
MIDLAND        PTCLDY    90  56  31 E12       29.99R
ODESSA         CLEAR     90  55  30 SE8       30.00R
WINK           CLEAR     91  55  29 E13       29.95R
$$

FAR WEST/SOUTHWEST MOUNTAINS/TRANS PECOS

CITY           SKY/WX    TMP DP  RH WIND       PRES   REMARKS
ALPINE         CLEAR     83  55  37 SE13      30.13R
DRYDEN           N/A     91  60  35 E13       29.92R
EL PASO        MOCLDY    96  44  16 N13       29.96R
FORT STOCKTON  CLEAR     88  58  36 SE9       29.98R
GUADALUPE PASS CLEAR     81  46  29 NE15      30.17R
MARFA          CLEAR     81  55  40 E12       30.11R
PECOS          CLEAR     92  55  28 SE14      29.94R
$$

DALLAS/FORT WORTH METROPLEX

CITY           SKY/WX    TMP DP  RH WIND       PRES   REMARKS
DFW AIRPORT    PTCLDY    90  69  50 SE10      29.93R
FTW MEACHAM    CLEAR     92  70  48 SE8       29.92S
DAL-EXECUTIVE  CLEAR     87  70  56 SE8       29.94R
GRAND PRAIRIE  CLEAR     88  67  49 E7        29.94S
ADDISON        CLEAR     91  71  52 SE9G16    29.96R
MESQUITE       CLOUDY    85  68  55 SE7       29.94S
LANCASTER      PTCLDY    87  71  58 E5        29.95R
$$

NORTH CENTRAL TEXAS

CITY           SKY/WX    TMP DP  RH WIND       PRES   REMARKS
SHRMAN/DENISON CLEAR     90  72  55 SE9       29.96R
GAINESVILLE    CLEAR     83  71  67 SE3       29.96R
BRIDGEPORT     CLEAR     84  72  65 S6        29.95R
DENTON         CLEAR     86  71  60 SE7       29.93R
WAXAHACHIE     CLEAR     86  72  62 CALM      29.95S
GRANBURY       PTCLDY    90  70  51 E8        29.95R
$$

WESTERN NORTH TEXAS

CITY           SKY/WX    TMP DP  RH WIND       PRES   REMARKS
WICHITA FALLS  CLEAR     84  70  62 SE8       29.94R
VERNON         CLEAR     89  63  40 SE9       29.96R
BRECKENRIDGE   CLEAR     89  65  44 SE8       29.95R
COMANCHE       CLEAR     84  65  52 SE5       29.97R
$$

CENTRAL AND SOUTH CENTRAL TEXAS

CITY           SKY/WX    TMP DP  RH WIND       PRES   REMARKS
AUSTIN/BERGSTM PTCLDY    88  71  57 S8        29.91R
WACO           CLEAR     87  68  52 SE6       29.92R
HILLSBORO      PTCLDY    85  72  63 E8        29.94S
TEMPLE         CLEAR     88  71  57 SE7       29.93R
KILLEEN-GRAY   CLEAR     88  68  51 E7        29.93R
FORT HOOD      CLEAR     87  70  56 SE6       29.91R
GEORGETOWN     CLEAR     90  68  48 SE6       29.93R
LAGO VISTA     FAIR      87  68  52 SE6       29.95S
SAN MARCOS     MOCLDY    86  72  62 S13       29.95R
NEW BRAUNFELS  PTCLDY    86  69  56 S13       29.92R
RANDOLPH AFB   CLEAR     84  70  61 SE12      29.94R
SAN ANTONIO    PTCLDY    87  70  56 SE16      29.94R
STINSON        CLEAR     87  70  56 SE10      29.91R
PLEASANTON     NOT AVBL
LA GRANGE        N/A     86  76  73 S3        29.92R
GIDDINGS       CLEAR     84  73  71 SE5       29.98R
$$

EAST TEXAS

CITY           SKY/WX    TMP DP  RH WIND       PRES   REMARKS
PARIS          CLEAR     84  66  54 SE15      29.97R
CLARKSVILLE    NOT AVBL
TYLER          CLOUDY    81  71  71 SE13      29.97R
LONGVIEW       PTCLDY    78  72  81 S8        29.96S
PALESTINE      PTCLDY    83  72  69 E8        29.98R
NACOGDOCHES    CLOUDY   N/A N/A N/A S6        29.96F
$$

TEXAS HILL COUNTRY AND EDWARDS PLATEAU

CITY           SKY/WX    TMP DP  RH WIND       PRES   REMARKS
LLANO          CLEAR     86  66  51 CALM      29.96S
HORSESHOE BAY  FAIR      86  66  51 SE3       29.94R
KERRVILLE      CLEAR     83  67  58 E5        29.96R
FREDERICKSBRG  CLEAR     82  63  52 E3        29.97S
ROCKSPRINGS    MOCLDY    86  64  48 SE8       30.01R
HONDO          CLEAR     88  69  53 SE20G26   29.94R
UVALDE         CLEAR     89  69  52 SE12G21   29.91R
DEL RIO        CLEAR     94  64  37 E10       29.86R
$$

SOUTHEAST TEXAS

CITY           SKY/WX    TMP DP  RH WIND       PRES   REMARKS
COLLEGE STN    CLEAR     86  73  65 S10       29.95R
CALDWELL         N/A    N/A N/A N/A SE6       29.97R
CROCKETT       CLOUDY    77  73  88 SE9G16    30.00F
BRENHAM        PTCLDY    83  73  71 SE3       29.96R
HUNTSVILLE     CLOUDY    85  75  72 VRB3      29.96R
CONROE         CLOUDY    82  76  81 E5        29.96R
HOUSTON BUSH   MOCLDY    86  74  67 S7        29.95R
HOUSTON HOBBY  MOCLDY    84  76  76 S5        29.95R
PERLAND        MOCLDY    86  76  71 S3        29.96R
WHARTON        PTCLDY    80  75  84 SE3       29.95R
$$

THE UPPER TEXAS COAST

CITY           SKY/WX    TMP DP  RH WIND       PRES   REMARKS
ORANGE         PTCLDY    81  76  85 CALM      29.98S
PORT ARTHUR    LGT RAIN  81  77  88 CALM      29.96R
GALVESTON      CLOUDY    85  78  80 S8        29.96R
ANGLETON       PTCLDY    83  76  79 CALM      29.95R
BAY CITY       PTCLDY    82  77  85 CALM      29.95R
$$

TEXAS COASTAL BEND, RIO GRANDE PLAINS DEEP SOUTH TEXAS

CITY           SKY/WX    TMP DP  RH WIND       PRES   REMARKS
VICTORIA       PTCLDY    82  76  81 SE9       29.93R
BEEVILLE       FAIR      83  78  86 SE8       29.93R
ROCKPORT       PTCLDY    85  76  74 S9        29.91R
PORT ARANSAS   PTCLDY    85  79  83 S14G20    29.92R
PORT LAVACA    CLOUDY    82  78  89 CALM      29.93R
CORPUS CHRISTI PTCLDY    83  77  82 SE10      29.92R
KINGSVILLE NAS CLEAR     83  80  91 SE12      29.91R
COTULLA        PTCLDY    89  69  51 SE21G28   29.89R
LAREDO         CLEAR     91  70  49 SE21G26   29.88R
BROWNSVILLE    CLEAR     83  76  79 SE9       29.92S
PORT ISABEL    CLEAR     85  77  77 SE14      29.91R
HEBBRONVILLE   CLEAR     85  73  65 SE9       29.93R
MCALLEN        CLEAR     86  76  71 SE18      29.90R
WESLACO        CLEAR     81   9   6 SE10G22   29.90R
FALFURRIAS     CLEAR     84  75  74 SE10G16   29.91R
EDINBURG       CLEAR     85  74  70 SE13      29.90R
$$




USA.gov is the U.S. government's official web portal to all federal, state and local government web resources and services.